DW1347 Weather Reports


Display with metric or nautical units.
time (UTC)temp
F
wind
direction
speed
MPH
gust
MPH
rain 1hr
in
rain 24hr
in
rain mn
in
humidity
%
barometer
mb
20260502233832 61 142 1.0 1.0 0.00 0.00 0.00 21 1025.9
20260502233328 60 195 2.0 3.0 0.00 0.00 0.00 20 1025.6
20260502232825 60 132 2.0 3.0 0.00 0.00 0.00 21 1025.6
20260502232321 61 97 6.0 7.0 0.00 0.00 0.00 20 1025.5
20260502231818 61 54 2.0 3.0 0.00 0.00 0.00 20 1025.7
20260502231316 61 54 3.0 3.0 0.00 0.00 0.00 21 1025.5
20260502230814 63 150 1.0 2.0 0.00 0.00 0.00 21 1025.9
20260502230312 60 284 2.0 2.0 0.00 0.00 0.00 20 1025.5
20260502225809 62 166 1.0 2.0 0.00 0.00 0.00 21 1025.6
20260502225305 62 281 5.0 6.0 0.00 0.00 0.00 21 1025.5
20260502224801 62 266 7.0 8.0 0.00 0.00 0.00 21 1025.5
20260502224252 63 238 2.0 2.0 0.00 0.00 0.00 22 1025.7
20260502223750 64 168 3.0 6.0 0.00 0.00 0.00 20 1025.6
20260502223248 62 238 2.0 2.0 0.00 0.00 0.00 22 1025.7
20260502222745 61 106 2.0 3.0 0.00 0.00 0.00 22 1025.7
20260502222242 62 13 7.0 7.0 0.00 0.00 0.00 22 1025.9
20260502221737 62 102 4.0 6.0 0.00 0.00 0.00 21 1026.0
20260502221234 62 336 5.0 7.0 0.00 0.00 0.00 22 1026.0
20260502220730 60 35 2.0 3.0 0.00 0.00 0.00 23 1026.1
20260502220227 64 12 10.0 15.0 0.00 0.00 0.00 22 1026.1
20260502215718 63 275 4.0 5.0 0.00 0.00 0.00 22 1025.9
20260502215215 63 201 5.0 8.0 0.00 0.00 0.00 22 1026.1
20260502214713 64 199 0.0 1.0 0.00 0.00 0.00 23 1026.4
20260502214210 62 223 3.0 3.0 0.00 0.00 0.00 25 1026.4
20260502213707 63 215 2.0 2.0 0.00 0.00 0.00 23 1026.6
20260502213204 61 133 1.0 5.0 0.00 0.00 0.00 24 1026.5
20260502212702 60 180 2.0 2.0 0.00 0.00 0.00 25 1026.8
20260502212200 63 149 4.0 6.0 0.00 0.00 0.00 24 1026.8
20260502211656 62 128 2.0 3.0 0.00 0.00 0.00 25 1026.8
20260502211153 61 241 0.0 0.0 0.00 0.00 0.00 26 1026.8
20260502210650 60 256 1.0 2.0 0.00 0.00 0.00 25 1027.0
20260502210147 60 178 4.0 5.0 0.00 0.00 0.00 26 1027.0
20260502205644 62 62 2.0 2.0 0.00 0.00 0.00 26 1027.1
20260502205141 61 230 4.0 5.0 0.00 0.00 0.00 27 1026.9
20260502204637 61 223 0.0 1.0 0.00 0.00 0.00 28 1027.6
20260502204135 62 140 4.0 5.0 0.00 0.00 0.00 26 1027.3
20260502203632 60 267 1.0 1.0 0.00 0.00 0.00 28 1027.5
20260502203130 60 225 2.0 3.0 0.00 0.00 0.00 29 1027.6
20260502202625 62 206 5.0 8.0 0.00 0.00 0.00 28 1027.5
20260502202123 60 217 0.0 1.0 0.00 0.00 0.00 29 1027.5
20260502201619 59 77 7.0 9.0 0.00 0.00 0.00 29 1027.3
20260502201110 57 40 3.0 3.0 0.00 0.00 0.00 30 1027.6
20260502200606 57 38 7.0 9.0 0.00 0.00 0.00 31 1027.5
20260502200104 58 335 3.0 3.0 0.00 0.00 0.00 31 1027.3
20260502195601 60 252 1.0 3.0 0.00 0.00 0.00 31 1027.6
20260502195057 59 231 5.0 7.0 0.00 0.00 0.00 31 1027.6
20260502194554 58 201 3.0 3.0 0.00 0.00 0.00 31 1027.8
20260502194050 59 157 2.0 3.0 0.00 0.00 0.00 32 1027.6
20260502193548 60 45 5.0 6.0 0.00 0.00 0.00 30 1027.9
20260502193044 59 136 3.0 5.0 0.00 0.00 0.00 31 1027.8
20260502192540 59 67 4.0 7.0 0.00 0.00 0.00 31 1027.9
20260502192038 60 127 5.0 7.0 0.00 0.00 0.00 30 1027.8
20260502191534 60 209 2.0 3.0 0.00 0.00 0.00 29 1027.8
20260502191032 58 212 3.0 3.0 0.00 0.00 0.00 29 1027.9
20260502190530 59 333 8.0 13.0 0.00 0.00 0.00 30 1027.9
20260502190026 57 322 5.0 6.0 0.00 0.00 0.00 29 1027.9
20260502185521 58 136 5.0 6.0 0.00 0.00 0.00 27 1028.1
20260502185018 57 42 6.0 7.0 0.00 0.00 0.00 28 1028.1
20260502184514 58 135 4.0 5.0 0.00 0.00 0.00 25 1028.0
20260502184010 57 299 3.0 5.0 0.00 0.00 0.00 25 1028.1
20260502183501 56 231 5.0 6.0 0.00 0.00 0.00 25 1028.3
20260502182956 57 277 3.0 3.0 0.00 0.00 0.00 24 1028.6
20260502182452 57 141 3.0 3.0 0.00 0.00 0.00 25 1028.3
20260502181948 56 281 6.0 7.0 0.00 0.00 0.00 25 1028.5
20260502181446 58 5 3.0 3.0 0.00 0.00 0.00 24 1028.6
20260502180945 58 321 3.0 5.0 0.00 0.00 0.00 26 1028.5
20260502180442 57 172 2.0 2.0 0.00 0.00 0.00 26 1028.6
20260502170401 54 158 2.0 3.0 0.00 0.00 0.00 28 1029.3
20260502164347 53 34 3.0 3.0 0.00 0.00 0.00 32 1029.1
20260502163843 52 292 3.0 5.0 0.00 0.00 0.00 31 1029.3
20260502163340 52 17 4.0 5.0 0.00 0.00 0.00 30 1029.4
20260502162838 53 12 8.0 9.0 0.00 0.00 0.00 30 1029.1
20260502162334 51 164 3.0 5.0 0.00 0.00 0.00 31 1029.3
20260502161831 51 25 4.0 5.0 0.00 0.00 0.00 32 1029.1
20260502161327 50 284 5.0 6.0 0.00 0.00 0.00 33 1029.1
20260502160825 52 174 0.0 0.0 0.00 0.00 0.00 31 1029.1
20260502160324 51 176 2.0 2.0 0.00 0.00 0.00 34 1029.4
20260502152259 49 114 3.0 5.0 0.00 0.00 0.00 32 1029.5
20260502151756 48 165 0.0 1.0 0.00 0.00 0.00 33 1030.0
20260502151253 48 204 1.0 1.0 0.00 0.00 0.00 34 1029.8
20260502150751 47 37 1.0 2.0 0.00 0.00 0.00 33 1029.8
20260502150247 47 19 6.0 7.0 0.00 0.00 0.00 32 1029.5
20260502130636 34 194 0.0 0.0 0.00 0.00 0.00 66 1029.9
20260502130133 31 197 0.0 0.0 0.00 0.00 0.00 72 1029.7
20260502123620 27 210 0.0 0.0 0.00 0.00 0.00 81 1029.7
20260502123115 26 206 0.0 0.0 0.00 0.00 0.00 79 1029.5
20260502122612 26 222 0.0 0.0 0.00 0.00 0.00 79 1029.4
20260502122109 26 207 0.0 1.0 0.00 0.00 0.00 79 1029.5
20260502121607 26 201 0.0 1.0 0.00 0.00 0.00 79 1029.3
20260502121105 26 216 0.0 0.0 0.00 0.00 0.00 79 1029.3
20260502120600 26 197 0.0 0.0 0.00 0.00 0.00 81 1029.5
20260502115556 26 212 0.0 0.0 0.00 0.00 0.00 79 1029.4
20260502115051 26 203 0.0 1.0 0.00 0.00 0.00 79 1029.3
20260502114548 26 210 0.0 0.0 0.00 0.00 0.00 80 1029.3
20260502114044 26 210 0.0 0.0 0.00 0.00 0.00 81 1029.3
20260502113542 26 196 1.0 1.0 0.00 0.00 0.00 81 1029.1
20260502113041 26 201 0.0 0.0 0.00 0.00 0.00 81 1029.1
20260502112538 26 218 0.0 0.0 0.00 0.00 0.00 80 1029.5
20260502112036 26 215 0.0 0.0 0.00 0.00 0.00 81 1029.3
20260502111532 26 187 1.0 1.0 0.00 0.00 0.00 80 1029.3
20260502111030 26 212 0.0 0.0 0.00 0.00 0.00 80 1029.1
20260502110527 26 207 0.0 0.0 0.00 0.00 0.00 81 1029.1
20260502110025 26 222 0.0 0.0 0.00 0.00 0.00 80 1029.5
20260502105522 26 186 1.0 1.0 0.00 0.00 0.00 80 1029.1
20260502105020 26 209 0.0 0.0 0.00 0.00 0.00 79 1029.3
20260502104516 27 245 0.0 0.0 0.00 0.00 0.00 78 1029.3
20260502104014 26 212 0.0 0.0 0.00 0.00 0.00 79 1029.1
20260502103511 27 225 0.0 0.0 0.00 0.00 0.00 78 1029.3
20260502103010 27 203 0.0 1.0 0.00 0.00 0.00 81 1029.1
20260502102505 27 211 0.0 0.0 0.00 0.00 0.00 81 1029.1
20260502102003 27 222 0.0 0.0 0.00 0.00 0.00 78 1029.1
20260502101500 28 197 0.0 0.0 0.00 0.00 0.00 76 1029.4
20260502100959 28 175 2.0 2.0 0.00 0.00 0.00 77 1029.4
20260502100457 28 177 1.0 2.0 0.00 0.00 0.00 77 1029.3
20260502091431 27 196 1.0 1.0 0.00 0.00 0.00 80 1029.1
20260502090928 27 208 0.0 1.0 0.00 0.00 0.00 80 1029.0
20260502090425 27 199 0.0 1.0 0.00 0.00 0.00 81 1028.9
20260502071308 28 200 0.0 1.0 0.00 0.00 0.00 81 1029.3
20260502070807 29 218 0.0 0.0 0.00 0.00 0.00 80 1029.4
20260502070304 29 193 1.0 1.0 0.00 0.00 0.00 80 1029.8
20260502065803 29 180 1.0 1.0 0.00 0.00 0.00 80 1029.8
20260502065300 29 191 1.0 1.0 0.00 0.00 0.00 81 1029.7
20260502064758 29 185 1.0 1.0 0.00 0.00 0.00 82 1029.8
20260502064255 28 191 1.0 1.0 0.00 0.00 0.00 82 1029.7
20260502063753 29 201 0.0 1.0 0.00 0.00 0.00 83 1029.9
20260502063251 28 209 0.0 0.0 0.00 0.00 0.00 83 1029.7
20260502062748 28 174 1.0 2.0 0.00 0.00 0.00 82 1029.8
20260502062245 29 203 0.0 0.0 0.00 0.00 0.00 81 1029.8
20260502061744 28 204 0.0 0.0 0.00 0.00 0.00 81 1029.7
20260502061241 28 206 0.0 0.0 0.00 0.00 0.00 81 1029.7
20260502060736 28 209 0.0 0.0 0.00 0.00 0.00 81 1029.8
20260502060226 28 189 1.0 1.0 0.00 0.00 0.00 82 1029.7
20260502055725 29 214 0.0 0.0 0.00 0.05 0.05 81 1029.7
20260502055222 29 208 0.0 0.0 0.00 0.05 0.05 81 1029.8
20260502054721 29 196 1.0 1.0 0.00 0.05 0.05 82 1029.7
20260502054218 29 211 0.0 0.0 0.00 0.05 0.05 82 1029.9
20260502053715 29 193 1.0 1.0 0.00 0.05 0.05 81 1029.7
20260502053212 29 209 0.0 0.0 0.00 0.05 0.05 83 1029.5
20260502052710 29 217 0.0 0.0 0.00 0.05 0.05 81 1029.8
20260502052208 29 225 0.0 0.0 0.00 0.05 0.05 80 1029.7
20260502051701 29 201 1.0 1.0 0.00 0.05 0.05 80 1029.8
20260502051159 29 218 0.0 0.0 0.00 0.05 0.05 81 1029.5
20260502050655 29 208 1.0 1.0 0.00 0.05 0.05 81 1029.7
20260502050151 29 214 0.0 0.0 0.00 0.05 0.05 80 1029.7
20260502045647 30 192 0.0 0.0 0.00 0.05 0.05 78 1029.7
20260502045145 30 207 0.0 1.0 0.00 0.05 0.05 79 1029.5
20260502044641 30 203 1.0 1.0 0.00 0.05 0.05 79 1029.5
20260502044138 30 215 0.0 0.0 0.00 0.05 0.05 77 1029.4
20260502043635 30 186 1.0 1.0 0.00 0.05 0.05 77 1029.4
20260502043127 30 207 0.0 1.0 0.00 0.05 0.05 77 1029.5
20260502042626 30 207 0.0 1.0 0.00 0.05 0.05 78 1029.5
20260502042124 30 211 0.0 0.0 0.00 0.05 0.05 78 1029.3
20260502041621 30 217 0.0 0.0 0.00 0.05 0.05 78 1029.4
20260502041118 30 211 0.0 0.0 0.00 0.05 0.05 77 1029.5
20260502040615 30 197 0.0 1.0 0.00 0.05 0.05 77 1029.4
20260502040113 31 211 0.0 0.0 0.00 0.05 0.05 77 1029.4
20260502035608 31 205 0.0 0.0 0.00 0.05 0.05 76 1029.3
20260502035105 31 218 0.0 0.0 0.00 0.05 0.05 75 1029.0
20260502034603 32 209 0.0 0.0 0.00 0.05 0.05 75 1029.0
20260502034101 32 196 1.0 1.0 0.00 0.05 0.05 74 1028.8
20260502033559 32 218 0.0 0.0 0.00 0.05 0.05 74 1028.9
20260502033056 32 214 0.0 0.0 0.00 0.05 0.05 73 1028.5
20260502032552 32 210 0.0 0.0 0.00 0.05 0.05 72 1028.5
20260502032049 33 176 1.0 1.0 0.00 0.05 0.05 76 1028.6
20260502031547 33 204 0.0 0.0 0.00 0.05 0.05 70 1028.5
20260502031044 33 214 0.0 0.0 0.00 0.05 0.05 69 1028.6
20260502030544 33 206 0.0 1.0 0.00 0.05 0.05 69 1028.4
20260502030041 34 193 1.0 1.0 0.00 0.05 0.05 67 1028.1
20260502025538 34 196 0.0 1.0 0.00 0.05 0.05 68 1028.1
20260502025036 35 201 1.0 1.0 0.00 0.05 0.05 66 1028.3
20260502024533 35 200 0.0 0.0 0.00 0.05 0.05 65 1027.9
20260502024032 36 207 0.0 0.0 0.00 0.05 0.05 64 1028.0
20260502023529 36 188 1.0 1.0 0.00 0.05 0.05 63 1027.9
20260502023026 37 185 0.0 1.0 0.00 0.05 0.05 61 1027.9
20260502022522 37 183 1.0 1.0 0.00 0.05 0.05 61 1027.8
20260502022020 37 192 1.0 1.0 0.00 0.05 0.05 60 1027.8
20260502021517 38 201 0.0 0.0 0.00 0.05 0.05 58 1027.6
20260502021014 38 250 0.0 1.0 0.00 0.05 0.05 58 1027.8
20260502020512 39 199 0.0 0.0 0.00 0.05 0.05 58 1027.9
20260502020008 39 210 0.0 0.0 0.00 0.05 0.05 58 1027.5
20260502015506 40 220 0.0 0.0 0.00 0.05 0.05 60 1027.8
20260502015002 41 221 0.0 0.0 0.00 0.05 0.05 57 1027.5
20260502014459 42 219 0.0 0.0 0.00 0.05 0.05 51 1027.4
20260502013956 43 220 0.0 0.0 0.00 0.05 0.05 49 1027.5
20260502013451 44 223 0.0 0.0 0.00 0.05 0.05 45 1027.4
20260502012948 45 273 2.0 2.0 0.00 0.05 0.05 43 1027.4
20260502012446 45 250 1.0 1.0 0.00 0.05 0.05 41 1027.4
20260502011943 45 225 0.0 0.0 0.00 0.05 0.05 44 1027.3
20260502011439 46 238 0.0 1.0 0.00 0.05 0.05 44 1027.0
20260502010936 46 312 1.0 1.0 0.00 0.05 0.05 40 1027.0
20260502010433 46 245 1.0 1.0 0.00 0.05 0.05 39 1027.3
20260502005929 46 224 1.0 1.0 0.00 0.05 0.05 38 1027.1
20260502005427 47 320 3.0 3.0 0.00 0.05 0.05 38 1026.8
20260502004925 47 241 3.0 3.0 0.00 0.05 0.05 38 1026.8
20260502004421 48 161 4.0 6.0 0.00 0.05 0.05 38 1026.9
20260502003918 48 214 2.0 3.0 0.00 0.05 0.05 36 1027.0
20260502003415 48 21 6.0 7.0 0.00 0.05 0.05 37 1027.0
20260502002911 48 184 3.0 3.0 0.00 0.05 0.05 35 1026.8
20260502002409 47 107 2.0 2.0 0.00 0.05 0.05 37 1026.8
20260502001906 47 170 3.0 3.0 0.00 0.05 0.05 37 1026.8
20260502001403 49 248 1.0 2.0 0.00 0.05 0.05 37 1026.9
20260502000901 48 251 4.0 6.0 0.00 0.05 0.05 36 1027.0
20260502000402 48 221 0.0 0.0 0.00 0.05 0.05 37 1026.9
20260501235855 47 222 0.0 1.0 0.00 0.05 0.05 38 1026.8
20260501235351 47 58 4.0 5.0 0.00 0.05 0.05 37 1026.8
20260501234846 47 209 0.0 0.0 0.00 0.05 0.05 38 1026.5
20260501234344 47 287 2.0 3.0 0.00 0.05 0.05 36 1026.6